STARLINK-1816, 46714

Orbit data source: Space-Track

STARLINK-1816, 46714 is a payload satellite owned by SpaceX/Seattle (US) in LEO that was launched on Sun, 18 Oct 2020 UTC via an FALCON 9 launch vehicle from the Air Force Eastern Test Range (AFETR). Payload-class satellites include a variety of spacecraft equipped with specific instruments for various scientific and technological missions. These include communications satellites like Starlink; space stations such as the ISS; scientific satellites like the Hubble; Earth observation satellites from companies like Planet Labs, Umbra, and HawkEye 360; GPS; miniature CubeSats for education and research; and military/defense satellites.

Loading next visibility...
Identifier
46714, 2020-073AW
Orbit
LEO
Country
Flag of USUS
Related business
Manufacturer
SpaceX/Seattle
Mission
Operational Commercial Communications
Bus & Motor
STARLINK, Unknown motor
Mass
260 kg wet, ~248 kg dry
Launch date (UTC)
2020-10-18 (5 years ago)
Launch vehicle
FALCON 9
Launch site
Air Force Eastern Test Range (AFETR)
Object type
Payload
Rocket body
Debris
Shape & HBR
Box + 1 Pan, 10.1 m
Radar Cross Section
13.562 m², Large (>1 m²)

Expand to show TLE details & history
Last TLE update: 17 hours ago

TLE from 17 hours ago
0 STARLINK-1816
1 46714U 20073AW  25286.44107859  .00012156  00000-0  83346-3 0  9997
2 46714  53.0530 182.6435 0001325  99.5445 260.5694 15.06404859274935
Epoch: 2025-10-13T10:35Z
TLE epoch observation values (Epoch: 2025-10-13T10:35:09.190Z)
Latitude
0.00001°
Longitude
1.6114°
Altitude
548.226 km
Speed
7.589 km/s
True Right ascension
12h 10m 34s
True Declination
0° 00' 00"
Sunlit
Object was in daylight at epoch
Visualization orbit readout
Latitude
Unknown
Longitude
Unknown
Altitude
Unknown
Speed
Unknown
Apparent Right ascension
Unknown
Apparent Declination
Unknown
Sunlit
N/A
Visualization observer readout
Local Sidereal Time
22:10:13
Azimuth
Unknown
Elevation
Unknown
Doppler factor
Unknown
Orbital elements
Apogee altitude
548.385 km
Perigee altitude
546.55 km
Semi-major axis
6,925.605 km
Eccentricity
0.00013
Inclination
53.053°
RAAN
182.6435°
Arg. of periapsis
99.5445°
True anomaly
260.55442°
Mean anomaly
260.5694°
Eccentric anomaly
260.56191°
Mean motion
3.76579 °/min
Orbital period
95.6 mins
BSTAR
0.00083346
Loading maneuver chart data...
Computing Atmospheric mass density...
Loading historical data...
Loading historical data...
Loading historical data...
Loading historical data...
Loading historical data...
Loading historical data...
Loading historical data...

Documentation

Showing up to 5 results
|